GW4409 Weather Reports


time (UTC)temp
C
wind
direction
speed
KPH
gust
KPH
rain 1hr
cm
rain 24hr
cm
rain mn
cm
humidity
%
barometer
mb
20260504201905 22 199 4.8 11.3 0.00 0.00 0.00 38 1009.8
20260504201404 22 185 4.8 12.9 0.00 0.00 0.00 38 1009.9
20260504200904 22 230 4.8 12.9 0.00 0.00 0.00 38 1009.9
20260504200404 22 163 4.8 14.5 0.00 0.00 0.00 38 1009.9
20260504195905 22 270 4.8 12.9 0.00 0.00 0.00 38 1009.9
20260504195404 22 238 6.4 12.9 0.00 0.00 0.00 38 1010.0
20260504194905 22 198 8.0 12.9 0.00 0.00 0.00 39 1010.0
20260504194405 22 182 4.8 14.5 0.00 0.00 0.00 38 1010.0
20260504193904 22 212 4.8 14.5 0.00 0.00 0.00 38 1010.0
20260504193406 22 231 6.4 14.5 0.00 0.00 0.00 38 1010.1
20260504192904 22 207 8.0 14.5 0.00 0.00 0.00 38 1010.1
20260504192404 22 193 4.8 19.3 0.00 0.00 0.00 38 1010.1
20260504191904 21 277 4.8 9.7 0.00 0.00 0.00 38 1010.3
20260504191404 21 254 8.0 12.9 0.00 0.00 0.00 39 1010.4
20260504190904 21 172 6.4 16.1 0.00 0.00 0.00 38 1010.3
20260504190404 22 173 8.0 14.5 0.00 0.00 0.00 40 1010.5
20260504185904 21 199 3.2 12.9 0.00 0.00 0.00 39 1010.5
20260504184904 21 299 4.8 12.9 0.00 0.00 0.00 38 1010.6
20260504184405 21 239 4.8 14.5 0.00 0.00 0.00 39 1010.6
20260504183404 21 243 4.8 11.3 0.00 0.00 0.00 40 1010.8
20260504182904 21 207 8.0 14.5 0.00 0.00 0.00 39 1010.9
20260504182404 21 194 6.4 16.1 0.00 0.00 0.00 39 1010.9
20260504181905 20 291 8.0 19.3 0.00 0.00 0.00 40 1011.1
20260504181405 21 187 4.8 14.5 0.00 0.00 0.00 40 1011.1
20260504180405 21 214 4.8 12.9 0.00 0.00 0.00 39 1011.2
20260504175906 21 242 4.8 11.3 0.00 0.00 0.00 39 1011.3
20260504175406 21 265 8.0 19.3 0.00 0.00 0.00 40 1011.4
20260504174405 20 211 8.0 19.3 0.00 0.00 0.00 40 1011.5
20260504173904 20 210 8.0 19.3 0.00 0.00 0.00 40 1011.6
20260504173405 20 201 8.0 14.5 0.00 0.00 0.00 40 1011.6
20260504172904 21 194 6.4 12.9 0.00 0.00 0.00 41 1011.6
20260504171904 20 207 4.8 12.9 0.00 0.00 0.00 41 1011.7
20260504171406 20 204 4.8 12.9 0.00 0.00 0.00 43 1011.8
20260504170906 20 241 8.0 12.9 0.00 0.00 0.00 41 1011.9
20260504170405 20 230 4.8 19.3 0.00 0.00 0.00 42 1011.9
20260504160404 18 201 6.4 14.5 0.00 0.00 0.00 41 1012.7
20260504150903 17 211 6.4 12.9 0.00 0.00 0.00 45 1013.3
20260504150405 17 228 4.8 16.1 0.00 0.00 0.00 47 1013.3
20260504140904 16 191 6.4 14.5 0.00 0.00 0.00 55 1013.5
20260504100403 3 225 1.6 8.0 0.00 0.00 0.00 90 1014.4
20260504081406 3 244 0.0 1.6 0.00 0.00 0.00 85 1014.4
20260504080906 3 131 0.0 0.0 0.00 0.00 0.00 84 1014.4
20260504080406 3 211 0.0 0.0 0.00 0.00 0.00 84 1014.4
20260504070406 4 179 0.0 0.0 0.00 0.00 0.00 80 1014.3
20260504050406 5 185 0.0 1.6 0.00 0.00 0.00 76 1014.2
20260504045906 5 129 0.0 0.0 0.00 0.00 0.00 76 1014.2
20260504045406 5 217 0.0 1.6 0.00 0.00 0.00 75 1014.2
20260504043906 5 139 0.0 1.6 0.00 0.00 0.00 76 1014.1
20260504043406 5 195 0.0 1.6 0.00 0.00 0.00 75 1014.1
20260504042407 6 240 0.0 1.6 0.00 0.00 0.00 74 1013.9
20260504041907 6 89 0.0 1.6 0.00 0.00 0.00 73 1013.8
20260504041407 6 217 0.0 1.6 0.00 0.00 0.00 72 1013.8
20260504040906 6 213 0.0 1.6 0.00 0.00 0.00 72 1013.8
20260504040406 6 222 0.0 1.6 0.00 0.00 0.00 71 1013.7
20260504035906 6 210 0.0 0.0 0.00 0.00 0.00 72 1013.7
20260504034407 6 136 0.0 0.0 0.00 0.00 0.00 70 1013.6
20260504033406 6 216 0.0 1.6 0.00 0.00 0.00 70 1013.6
20260504032405 7 246 0.0 1.6 0.00 0.00 0.00 69 1013.5
20260504031906 7 245 0.0 3.2 0.00 0.00 0.00 68 1013.5
20260504031408 7 329 1.6 3.2 0.00 0.00 0.00 68 1013.5
20260504030908 7 346 0.0 3.2 0.00 0.00 0.00 69 1013.4
20260504025407 7 160 0.0 1.6 0.00 0.00 0.00 68 1013.4
20260504024905 7 61 0.0 1.6 0.00 0.00 0.00 67 1013.4
20260504024405 7 214 0.0 1.6 0.00 0.00 0.00 67 1013.5
20260504023906 7 185 0.0 1.6 0.00 0.00 0.00 67 1013.5
20260504023408 7 42 0.0 1.6 0.00 0.00 0.00 67 1013.4
20260504021906 7 173 0.0 1.6 0.00 0.00 0.00 66 1013.4
20260504020906 8 290 1.6 3.2 0.00 0.00 0.00 64 1013.4
20260504020407 8 107 0.0 1.6 0.00 0.00 0.00 64 1013.3
20260504015905 8 174 0.0 1.6 0.00 0.00 0.00 64 1013.3
20260504015406 8 222 0.0 1.6 0.00 0.00 0.00 64 1013.4
20260504014905 8 214 0.0 1.6 0.00 0.00 0.00 62 1013.3
20260504013906 9 160 0.0 1.6 0.00 0.00 0.00 61 1013.3
20260504013405 9 153 0.0 1.6 0.00 0.00 0.00 60 1013.2
20260504012906 10 231 0.0 0.0 0.00 0.00 0.00 58 1013.2
20260504012406 10 231 0.0 0.0 0.00 0.00 0.00 56 1013.1
20260504011906 10 231 0.0 0.0 0.00 0.00 0.00 53 1013.1
20260504011406 10 231 1.6 1.6 0.00 0.00 0.00 52 1013.0
20260504010905 11 190 0.0 0.0 0.00 0.00 0.00 52 1013.0
20260504005905 11 222 0.0 3.2 0.00 0.00 0.00 49 1012.8
20260504005408 11 226 1.6 3.2 0.00 0.00 0.00 50 1012.7
20260504004906 11 294 0.0 1.6 0.00 0.00 0.00 50 1012.7
20260504004405 11 223 0.0 1.6 0.00 0.00 0.00 48 1012.6
20260504003907 11 229 0.0 3.2 0.00 0.00 0.00 47 1012.6
20260504003406 12 206 0.0 3.2 0.00 0.00 0.00 46 1012.5
20260504002406 12 241 0.0 3.2 0.00 0.00 0.00 44 1012.4
20260504001905 12 179 0.0 1.6 0.00 0.00 0.00 45 1012.3
20260504001405 13 198 0.0 4.8 0.00 0.00 0.00 43 1012.3
20260503235906 13 188 1.6 4.8 0.00 0.00 0.00 40 1012.1
20260503235405 14 231 1.6 8.0 0.00 0.00 0.00 39 1012.1
20260503234906 14 254 4.8 9.7 0.00 0.00 0.00 38 1012.0
20260503234406 14 227 3.2 11.3 0.00 0.00 0.00 38 1012.0
20260503233907 14 281 3.2 8.0 0.00 0.00 0.00 39 1012.0
20260503233405 14 232 1.6 8.0 0.00 0.00 0.00 38 1012.0
20260503232906 14 198 3.2 8.0 0.00 0.00 0.00 37 1011.9
20260503232405 15 281 4.8 12.9 0.00 0.00 0.00 37 1011.9
20260503231906 15 225 4.8 12.9 0.00 0.00 0.00 36 1011.8
20260503231406 15 294 4.8 11.3 0.00 0.00 0.00 36 1011.9
20260503230905 15 252 8.0 16.1 0.00 0.00 0.00 36 1011.8
20260503230405 15 197 4.8 11.3 0.00 0.00 0.00 36 1011.6
20260503225907 15 309 3.2 12.9 0.00 0.00 0.00 36 1011.7
20260503224906 16 272 4.8 12.9 0.00 0.00 0.00 34 1011.6
20260503224406 16 281 3.2 11.3 0.00 0.00 0.00 34 1011.7
20260503223906 16 247 8.0 14.5 0.00 0.00 0.00 34 1011.7
20260503223405 16 298 4.8 16.1 0.00 0.00 0.00 34 1011.7
20260503222905 16 253 4.8 14.5 0.00 0.00 0.00 34 1011.6
20260503220905 16 212 4.8 12.9 0.00 0.00 0.00 34 1011.7
20260503215906 16 267 8.0 14.5 0.00 0.00 0.00 33 1011.6
20260503215406 16 248 4.8 12.9 0.00 0.00 0.00 34 1011.5
20260503214908 16 332 3.2 9.7 0.00 0.00 0.00 34 1011.5
20260503214405 16 217 4.8 14.5 0.00 0.00 0.00 34 1011.5
20260503213905 16 266 4.8 11.3 0.00 0.00 0.00 34 1011.5
20260503213405 15 341 3.2 11.3 0.00 0.00 0.00 34 1011.5
20260503212905 15 222 4.8 12.9 0.00 0.00 0.00 34 1011.5
20260503212406 15 288 6.4 14.5 0.00 0.00 0.00 35 1011.5
20260503211905 15 311 8.0 19.3 0.00 0.00 0.00 35 1011.3
20260503211405 15 315 6.4 19.3 0.00 0.00 0.00 34 1011.5
20260503210905 15 340 4.8 14.5 0.00 0.00 0.00 34 1011.5
20260503210405 15 238 9.7 16.1 0.00 0.00 0.00 36 1011.5
20260503205907 15 246 8.0 16.1 0.00 0.00 0.00 35 1011.6
20260503205405 15 298 4.8 11.3 0.00 0.00 0.00 36 1011.6
20260503204905 15 0 8.0 14.5 0.00 0.00 0.00 35 1011.7
20260503204405 15 275 8.0 16.1 0.00 0.00 0.00 36 1011.7
20260503203905 15 348 8.0 16.1 0.00 0.00 0.00 36 1011.8
20260503203405 15 11 4.8 12.9 0.00 0.00 0.00 36 1011.7
20260503202907 15 278 6.4 16.1 0.00 0.00 0.00 36 1011.9
20260503202405 15 212 6.4 12.9 0.00 0.00 0.00 36 1011.7